[[{"header":{"parameterUnit":"m.s-1","parameterCategory":1,"la1":30.2991,"la2":30.254,"lo1":-89.0895,"lo2":-89.0444,"dy":0.0017,"dx":0.0017,"nx":28,"ny":28,"refTime":"2025-04-17T03:00:00:Z","depth":0,"parameterNumber":2,"parameterNumberName":"U-component_of_WINDS"},"data":[0,0,0,0,0,0,0,0,0,0,0,0,0,0,0,0,0,0,0,0,0,0,0,0,0,0,0,0,0,0,0,0,0,0,0,0,0,0,0,0,0,0,0,0,0,0,0,0,0,0,0,0,0,0,0,0,0,0,-3.5699,-3.5699,0,-3.5731,-3.5732,-3.5732,-3.5706,-3.5705,-3.5704,-3.5703,-3.5735,-3.5737,-3.5739,0,0,0,0,0,0,0,0,0,0,0,0,0,-3.5616,-3.5617,-3.5699,-3.5699,-3.57,-3.5731,-3.5732,-3.5732,-3.5706,-3.5705,-3.5704,-3.5702,-3.5735,-3.5737,-3.5739,0,0,0,0,0,0,0,0,0,0,0,0,0,-3.565,-3.5618,-3.5699,-3.5691,-3.569,-3.5731,-3.5732,-3.5732,-3.5707,-3.5705,-3.5703,-3.5702,-3.5734,-3.5737,-3.5739,-3.579,0,0,-3.5748,-3.5749,0,0,0,0,0,0,0,0,-3.5648,-3.5653,-3.5692,-3.5691,-3.5691,-3.5713,-3.5714,-3.5752,-3.5707,-3.57,-3.5703,-3.5701,-3.5729,-3.5732,-3.5742,-3.5791,-3.5793,-3.5748,-3.575,-3.5751,-3.5752,0,0,0,0,0,0,0,-3.5646,-3.5652,-3.5712,-3.5692,-3.5692,-3.5686,-3.5689,-3.5721,-3.5724,-3.5701,-3.5699,-3.5703,-3.5729,-3.5739,-3.5742,-3.5793,-3.5748,-3.5751,-3.5752,-3.5754,-3.5887,-3.5888,0,0,0,0,0,0,-3.5644,-3.565,-3.5711,-3.5713,-3.5665,-3.5689,-3.5692,-3.5708,-3.5723,-3.5724,-3.5705,-3.5702,-3.5735,-3.5739,-3.5743,-3.5803,-3.5751,-3.5754,-3.5755,-3.5885,-3.5887,-3.5889,0,0,0,0,0,0,-3.5643,-3.565,-3.5709,-3.5681,-3.5688,-3.5692,-3.571,-3.5709,-3.572,-3.5726,-3.5726,-3.5715,-3.5734,-3.574,-3.5779,-3.5804,-3.5755,-3.5758,-3.5883,-3.5886,-3.5888,-3.5924,0,0,0,0,0,0,-3.564,-3.565,-3.5668,-3.5682,-3.569,-3.5744,-3.5711,-3.5711,-3.5725,-3.5721,-3.5736,-3.5737,-3.5733,-3.5775,-3.5782,-3.5807,-3.576,-3.588,-3.5884,-3.5887,-3.592,-3.5927,-3.5933,0,0,0,0,0,-3.5637,-3.5677,-3.5669,-3.5677,-3.5713,-3.5745,-3.575,-3.5746,-3.5727,-3.5746,-3.575,-3.5736,-3.5801,-3.5779,-3.5786,-3.5813,-3.5879,-3.5883,-3.5887,-3.5917,-3.5926,-3.5933,0,0,0,0,0,0,-3.5665,-3.5678,-3.567,-3.5715,-3.5729,-3.5741,-3.5764,-3.5755,-3.5775,-3.5771,-3.5764,-3.5768,-3.5809,-3.5816,-3.5791,-3.5864,-3.5837,-3.5843,-3.5857,-3.5866,-3.5872,-3.5869,-3.5762,0,0,0,0,0,-3.5677,-3.5702,-3.5712,-3.575,-3.5758,-3.576,-3.5774,-3.577,-3.5784,-3.579,-3.5798,-3.5812,-3.5836,-3.5852,-3.5874,-3.5922,-3.5925,-3.5945,-3.5951,-3.5957,-3.5961,-3.5987,-3.5996,-3.5903,-3.5903,-3.5903,0,0,-3.57,-3.571,-3.5726,-3.5756,-3.5767,-3.5793,-3.5765,-3.5794,-3.5813,-3.5794,-3.5832,-3.5838,-3.5854,-3.5899,-3.5918,-3.5905,-3.5988,-3.5962,-3.5966,-3.5967,-3.5993,-3.6001,-3.6009,-3.5906,-3.5905,-3.5905,0,0,-3.5756,-3.5767,-3.58,-3.5812,-3.5829,-3.5831,-3.5839,-3.5853,-3.5856,-3.5894,-3.5881,-3.5904,-3.5945,-3.5957,-3.5969,-3.6033,-3.602,-3.6041,-3.6074,-3.61,-3.6107,-3.6114,-3.6136,-3.6144,-3.6045,-3.6046,-3.6046,0,-3.5783,-3.5821,-3.5818,-3.5848,-3.5862,-3.5848,-3.5881,-3.5893,-3.5916,-3.5926,-3.5912,-3.5964,-3.5974,-3.6021,-3.6036,-3.6047,-3.6056,-3.6037,-3.6107,-3.6113,-3.6119,-3.614,-3.6148,-3.6048,-3.6048,-3.6047,-3.6047,0,-3.5853,-3.5881,-3.5906,-3.5929,-3.5946,-3.5978,-3.598,-3.5998,-3.5993,-3.5996,-3.6036,-3.6048,-3.6072,-3.6084,-3.6079,-3.6131,-3.6122,-3.6108,-3.608,-3.613,-3.615,-3.6158,-3.6051,-3.605,-3.6049,-3.6049,0,0,-3.5924,-3.5948,-3.5957,-3.5968,-3.5987,-3.6008,-3.604,-3.6065,-3.608,-3.6098,-3.6124,-3.6161,-3.6148,-3.6161,-3.6158,-3.6182,-3.6231,-3.6164,-3.6164,-3.6175,-3.6289,-3.6298,-3.6307,-3.6224,-3.6226,-3.6227,-3.6287,0,-3.598,-3.6035,-3.6034,-3.6086,-3.6111,-3.61,-3.6128,-3.6143,-3.6148,-3.6171,-3.6176,-3.6202,-3.6183,-3.6191,-3.6214,-3.622,-3.6253,-3.6216,-3.6248,-3.6249,-3.6242,-3.6318,-3.6328,-3.6383,-3.6295,-3.6296,-3.6297,0,-3.6051,-3.6072,-3.6126,-3.6143,-3.6154,-3.6179,-3.6202,-3.6224,-3.6242,-3.6244,-3.6261,-3.6255,-3.6288,-3.6262,-3.6307,-3.6282,-3.6296,-3.6301,-3.6304,-3.6304,-3.6274,-3.6319,-3.6401,-3.6409,-3.6309,-3.6308,-3.6307,0,-3.6097,-3.6138,-3.6176,-3.6186,-3.6207,-3.6225,-3.6234,-3.6251,-3.6266,-3.6287,-3.6297,-3.6322,-3.6335,-3.6355,-3.6356,-3.6337,-3.6402,-3.6376,-3.6404,-3.6404,-3.6416,-3.6415,-3.6499,-3.6428,-3.6428,-3.6428,-3.6428,0,-3.6158,-3.6191,-3.6197,-3.622,-3.6257,-3.6257,-3.6294,-3.6302,-3.6317,-3.6342,-3.6334,-3.6357,-3.6359,-3.6383,-3.6385,-3.6422,-3.6429,-3.6431,-3.6431,-3.6431,-3.643,-3.6438,-3.6433,-3.643,-3.643,-3.6429,-3.6429,0,-3.6213,-3.6218,-3.6259,-3.6276,-3.6281,-3.6308,-3.6323,-3.6345,-3.6351,-3.6382,-3.639,-3.6398,-3.6427,-3.6431,-3.6464,-3.6465,-3.651,-3.6507,-3.6504,-3.6503,-3.653,-3.6527,-3.6621,-3.6633,-3.6556,-3.6556,-3.6557,0,-3.6251,-3.6276,-3.6297,-3.6313,-3.6324,-3.635,-3.6366,-3.6368,-3.6385,-3.6408,-3.6428,-3.6456,-3.6478,-3.6525,-3.6534,-3.656,-3.6556,-3.6587,-3.6559,-3.6559,-3.6555,-3.6553,-3.6555,-3.6591,-3.6592,-3.6593,-3.6593,0,-3.6317,-3.6319,-3.6342,-3.6368,-3.6387,-3.6407,-3.6426,-3.644,-3.6444,-3.6464,-3.6494,-3.6511,-3.6546,-3.6574,-3.66,-3.661,-3.6603,-3.6603,-3.661,-3.6609,-3.6606,-3.6608,-3.6517,-3.66,-3.6599,-3.6599,-3.6598,-3.6598,-3.6364,-3.6386,-3.6404,-3.6431,-3.6446,-3.6464,-3.6486,-3.6495,-3.652,-3.6548,-3.6548,-3.6581,-3.6599,-3.6634,-3.6646,-3.6672,-3.6661,-3.6673,-3.6675,-3.6678,-3.668,-3.6604,-3.6677,-3.6677,-3.6676,-3.6676,-3.6676,0,-3.6428,-3.644,-3.6465,-3.6492,-3.6514,-3.6507,-3.6528,-3.6546,-3.6574,-3.6593,-3.6615,-3.665,-3.6677,-3.669,-3.6718,-3.6736,-3.6733,-3.6743,-3.674,-3.6743,-3.6688,-3.6678,-3.6744,-3.6744,-3.6744,-3.6744,-3.6744,-3.6744,-3.6464,-3.6502,-3.6506,-3.6552,-3.6563,-3.6595,-3.6607,-3.6625,-3.6639,-3.6678,-3.6701,-3.671,-3.6726,-3.6755,-3.678,-3.6783,-3.6793,-3.6804,-3.6806,-3.6754,-3.6747,-3.674,-3.673,-3.6807,-3.6807,-3.6858,-3.6859,-3.6859]},{"header":{"parameterUnit":"m.s-1","parameterCategory":1,"la1":30.2991,"la2":30.254,"lo1":-89.0895,"lo2":-89.0444,"dy":0.0017,"dx":0.0017,"nx":28,"ny":28,"refTime":"2025-04-17T03:00:00:Z","depth":0,"parameterNumber":3,"parameterNumberName":"V-component_of_WINDS"},"data":[0,0,0,0,0,0,0,0,0,0,0,0,0,0,0,0,0,0,0,0,0,0,0,0,0,0,0,0,0,0,0,0,0,0,0,0,0,0,0,0,0,0,0,0,0,0,0,0,0,0,0,0,0,0,0,0,0,0,4.8911,4.8911,0,4.8928,4.8928,4.8928,4.8952,4.8952,4.8953,4.8953,4.8966,4.8966,4.8966,0,0,0,0,0,0,0,0,0,0,0,0,0,4.8897,4.8898,4.8911,4.8911,4.8912,4.8928,4.8928,4.8928,4.8952,4.8952,4.8953,4.8953,4.8966,4.8966,4.8966,0,0,0,0,0,0,0,0,0,0,0,0,0,4.8907,4.8898,4.8911,4.8926,4.8927,4.8928,4.8928,4.8928,4.8952,4.8952,4.8953,4.8954,4.8966,4.8966,4.8966,4.8953,0,0,4.8966,4.8966,0,0,0,0,0,0,0,0,4.8907,4.8908,4.8923,4.8925,4.8926,4.8939,4.8928,4.8936,4.8952,4.8942,4.8953,4.8954,4.8956,4.8957,4.8958,4.8953,4.8954,4.8966,4.8966,4.8966,4.8966,0,0,0,0,0,0,0,4.8906,4.8907,4.8918,4.8923,4.8925,4.893,4.8932,4.893,4.8945,4.8943,4.8945,4.8947,4.8957,4.8958,4.8959,4.8954,4.8966,4.8966,4.8966,4.8966,4.894,4.894,0,0,0,0,0,0,4.8904,4.8907,4.8917,4.8918,4.8918,4.893,4.8932,4.8934,4.8945,4.8948,4.8946,4.8948,4.8958,4.8959,4.8959,4.8946,4.8966,4.8966,4.8966,4.8941,4.894,4.8939,0,0,0,0,0,0,4.8903,4.8905,4.8916,4.8913,4.8915,4.893,4.8931,4.8934,4.8935,4.8948,4.895,4.8945,4.8959,4.896,4.8955,4.8946,4.8966,4.8965,4.8942,4.8941,4.894,4.8917,0,0,0,0,0,0,4.8903,4.8904,4.89,4.8913,4.8915,4.8912,4.893,4.8934,4.8936,4.8938,4.8947,4.8949,4.8959,4.8955,4.8955,4.8947,4.8965,4.8942,4.8941,4.894,4.8919,4.8916,4.8913,0,0,0,0,0,4.8902,4.8892,4.89,4.8901,4.891,4.8912,4.8913,4.8926,4.8935,4.893,4.8939,4.8949,4.8947,4.8954,4.8954,4.8946,4.8943,4.8941,4.894,4.892,4.8916,4.8913,0,0,0,0,0,0,4.8876,4.8894,4.8902,4.8896,4.8902,4.8916,4.891,4.8921,4.8924,4.8926,4.894,4.8942,4.8936,4.894,4.8947,4.8934,4.8947,4.8945,4.8932,4.8928,4.8925,4.8924,4.8965,0,0,0,0,0,4.8869,4.887,4.8885,4.8878,4.8881,4.8895,4.8896,4.8906,4.8913,4.8915,4.8923,4.8928,4.8929,4.8929,4.893,4.892,4.8922,4.8914,4.8911,4.8909,4.8907,4.8903,4.89,4.8935,4.8935,4.8935,0,0,4.8856,4.8866,4.8865,4.8873,4.8879,4.8879,4.8897,4.8896,4.8896,4.8914,4.8911,4.8917,4.8923,4.8916,4.8914,4.892,4.8899,4.8907,4.8905,4.8905,4.8901,4.8898,4.8895,4.8934,4.8934,4.8934,0,0,4.8831,4.8838,4.8834,4.884,4.885,4.886,4.8859,4.8871,4.8876,4.8873,4.8887,4.8887,4.8888,4.8892,4.8895,4.8874,4.8884,4.8873,4.8858,4.8854,4.8851,4.8849,4.8842,4.8839,4.8872,4.8872,4.8872,0,4.8812,4.8814,4.883,4.8829,4.8832,4.885,4.8846,4.885,4.8859,4.8861,4.8868,4.8871,4.8876,4.8871,4.8866,4.8867,4.8866,4.8872,4.8851,4.8848,4.8846,4.884,4.8837,4.8871,4.8871,4.8871,4.8871,0,4.8791,4.8792,4.8787,4.8797,4.88,4.8797,4.8811,4.8812,4.8822,4.8831,4.8828,4.8835,4.8839,4.8839,4.8847,4.8835,4.8839,4.8848,4.8861,4.8842,4.8836,4.8833,4.8869,4.8869,4.887,4.887,0,0,4.8749,4.8769,4.8767,4.8773,4.8786,4.8786,4.8784,4.8789,4.879,4.8796,4.8794,4.8795,4.8805,4.8807,4.8817,4.8813,4.8797,4.8823,4.8823,4.8818,4.8784,4.8777,4.8774,4.8804,4.8803,4.8803,4.8784,0,4.8727,4.8725,4.874,4.8735,4.8736,4.8754,4.8752,4.876,4.8768,4.877,4.8778,4.8779,4.8791,4.8793,4.8791,4.8799,4.879,4.8801,4.8802,4.8801,4.88,4.8771,4.8763,4.8744,4.8781,4.8781,4.8781,0,4.87,4.8707,4.8702,4.8717,4.8718,4.8716,4.8723,4.8724,4.8733,4.8739,4.8743,4.8755,4.8753,4.8766,4.8763,4.8771,4.8772,4.8776,4.8776,4.8776,4.879,4.877,4.8739,4.8736,4.8777,4.8777,4.8778,0,4.8671,4.8678,4.8677,4.8681,4.8697,4.8696,4.8703,4.8712,4.8715,4.872,4.8722,4.8727,4.8729,4.8732,4.8744,4.8752,4.8741,4.8754,4.8746,4.8746,4.8742,4.8742,4.8711,4.8743,4.8743,4.8743,4.8743,0,4.8645,4.8641,4.8664,4.8663,4.866,4.8676,4.8672,4.868,4.8689,4.8689,4.8705,4.8705,4.8721,4.8722,4.8732,4.8729,4.873,4.8734,4.8737,4.8733,4.8733,4.8734,4.8736,4.8742,4.8742,4.8743,4.8743,0,4.8611,4.8627,4.8626,4.8643,4.8647,4.8644,4.8657,4.8657,4.8667,4.8667,4.8668,4.8683,4.8686,4.8699,4.8704,4.871,4.8704,4.8709,4.8702,4.8703,4.8694,4.8695,4.8662,4.8659,4.8693,4.8693,4.8693,0,4.8594,4.8592,4.8609,4.8611,4.8618,4.8621,4.8624,4.8641,4.8644,4.8654,4.8652,4.8657,4.8661,4.8664,4.8675,4.8679,4.8685,4.8673,4.8685,4.8682,4.8685,4.8685,4.8685,4.867,4.867,4.8669,4.8669,0,4.8561,4.8569,4.8575,4.8583,4.8587,4.8594,4.8601,4.8602,4.862,4.8622,4.8626,4.863,4.8636,4.864,4.8647,4.8653,4.8664,4.8665,4.8664,4.866,4.8656,4.8659,4.8695,4.8666,4.8666,4.8666,4.8667,4.8667,4.8536,4.8535,4.8548,4.8553,4.8561,4.8568,4.8569,4.858,4.8584,4.8591,4.8601,4.8604,4.8613,4.8623,4.8628,4.863,4.8636,4.8634,4.8633,4.8632,4.8631,4.8656,4.8631,4.8631,4.8631,4.8631,4.8632,0,4.8504,4.8514,4.8519,4.853,4.8534,4.8546,4.8555,4.8558,4.8561,4.8569,4.8574,4.8579,4.8583,4.8595,4.8601,4.86,4.8605,4.8601,4.8601,4.8602,4.8624,4.8626,4.8597,4.8597,4.8597,4.8597,4.8597,4.8597,4.8489,4.8489,4.8499,4.8503,4.8512,4.8517,4.8521,4.8527,4.8535,4.854,4.8544,4.8553,4.8562,4.8569,4.8573,4.8577,4.8578,4.8572,4.8577,4.8597,4.8601,4.8604,4.8605,4.8572,4.8572,4.8555,4.8555,4.8554]}]]